Location: Boitzum
(52.1496°N, 9.6943°E)
Time: 23:11:02
(UTC+00:00)

Lacrosse 4 Rocket - Pass Details

Date: 13 January 2026
Orbit: 512 x 564 km, 68.0° (Epoch: 17 February)

Event Time Altitude Azimuth Distance (km) Brightness Sun altitude
Rises 05:40:18 0° 175° (S) 2,655 5.1 -15.2°
Reaches altitude 10° 05:42:55 10° 158° (SSE) 1,762 4.4 -14.9°
Maximum altitude 05:45:47 20° 111° (ESE) 1,257 4.2 -14.4°
Drops below altitude 10° 05:48:39 10° 64° (ENE) 1,756 4.6 -14.0°
Sets 05:51:14 0° 47° (NE) 2,643 5.2 -13.6°
